Weather History for Harlan, IA

Change the Weather History Date:

Monday, June 24, 2013

  Actual Average Record
Temperature  
Mean Temperature 73 °F -  
Max Temperature 78 °F 84 °F 101 °F (1988)
Min Temperature 68 °F 61 °F 46 °F (1961)
Cooling Degree Days 8    
Growing Degree Days 23 (Base 50)    
Moisture  
Dew Point 68 °F    
Average Humidity 83    
Maximum Humidity 94    
Minimum Humidity 69    
Precipitation  
Precipitation 1.47 in - - ()
Sea Level Pressure  
Sea Level Pressure 29.90 in    
Wind  
Wind Speed 8 mph (SSE)    
Max Wind Speed 34 mph    
Max Gust Speed 50 mph    
Visibility 9 miles    
Events Rain    
Averages and records for this station are not official NWS values.
T = Trace of Precipitation, MM = Missing Value Source: NWS Daily Summary

Daily Weather History Graph

Daily Weather History Graph

Search for Another Location

Airport:

Trip Planner

Search our weather history database for the weather conditions in past years. The results will help you decide how hot, cold, wet, or windy it might be!

Date:

Astronomy

Jun. 24, 2013 Rise Set
Actual Time 5:48 AM CDT 8:59 PM CDT
Civil Twilight 5:14 AM CDT 9:33 PM CDT
Nautical Twilight 4:30 AM CDT 10:17 PM CDT
Astronomical Twilight 3:37 AM CDT 11:09 PM CDT
Moon 10:00 PM CDT (6/24) 7:18 AM CDT (6/24)
Length of Visible Light 16h 19m
Length of Day
15h 11m
Full, 98% of the Moon is Illuminated
Jun 24
Full
Jun 29
Last Quarter
Jul 8
New
Jul 15
First Quarter
Jul 22
Full

Hourly Weather History & Observations

Time (CDT) Temp. Dew Point Humidity Pressure Visibility Wind Dir Wind Speed Gust Speed Precip Events Conditions
12:15 AM 75.2 °F 71.6 °F 89% 29.95 in 10.0 mi Calm Calm - N/A   Mostly Cloudy
12:35 AM 73.4 °F 71.6 °F 94% 29.94 in 6.0 mi East 3.5 mph - N/A Rain Light Rain
12:55 AM 73.4 °F 71.6 °F 94% 29.94 in 6.0 mi ESE 5.8 mph - 0.08 in Rain Light Rain
1:15 AM 73.4 °F 69.8 °F 88% 29.93 in 10.0 mi East 9.2 mph 21.9 mph N/A   Overcast
1:35 AM 73.4 °F 71.6 °F 94% 29.94 in 6.0 mi East 4.6 mph - N/A Rain Rain
1:55 AM 73.4 °F 71.6 °F 94% 29.93 in 10.0 mi SE 11.5 mph - 0.13 in   Light Drizzle
2:15 AM 73.4 °F 71.6 °F 94% 29.94 in 10.0 mi SE 9.2 mph - N/A   Overcast
2:35 AM 73.4 °F 69.8 °F 88% 29.94 in 9.0 mi ESE 13.8 mph - N/A   Light Drizzle
2:55 AM 69.8 °F 66.2 °F 88% 29.95 in 10.0 mi East 10.4 mph 23.0 mph 0.01 in   Overcast
3:15 AM 69.8 °F 64.4 °F 83% 29.95 in 10.0 mi East 8.1 mph - N/A   Overcast
3:35 AM 69.8 °F 62.6 °F 78% 29.95 in 10.0 mi Variable 5.8 mph - N/A   Overcast
3:55 AM 68.0 °F 62.6 °F 83% 29.95 in 10.0 mi NE 5.8 mph - N/A   Mostly Cloudy
4:15 AM 68.0 °F 62.6 °F 83% 29.94 in 10.0 mi NE 6.9 mph - N/A   Scattered Clouds
4:35 AM 68.0 °F 64.4 °F 88% 29.95 in 10.0 mi SE 5.8 mph - N/A   Partly Cloudy
4:55 AM 68.0 °F 64.4 °F 88% 29.93 in 10.0 mi SE 6.9 mph - N/A   Partly Cloudy
5:15 AM 69.8 °F 64.4 °F 83% 29.94 in 10.0 mi SE 8.1 mph - N/A   Clear
5:35 AM 69.8 °F 66.2 °F 88% 29.94 in 10.0 mi SE 5.8 mph - N/A   Clear
5:55 AM 69.8 °F 66.2 °F 88% 29.93 in 10.0 mi ESE 3.5 mph - N/A   Clear
6:15 AM 68.0 °F 66.2 °F 94% 29.92 in 10.0 mi SSE 3.5 mph - N/A   Clear
6:35 AM 69.8 °F 66.2 °F 88% 29.93 in 10.0 mi South 5.8 mph - N/A   Clear
6:55 AM 71.6 °F 68.0 °F 88% 29.93 in 10.0 mi South 9.2 mph - N/A   Clear
7:15 AM 73.4 °F 69.8 °F 88% 29.93 in 9.0 mi South 11.5 mph - N/A   Clear
7:35 AM 73.4 °F 69.8 °F 88% 29.92 in 2.0 mi South 11.5 mph 19.6 mph N/A   Light Drizzle
7:55 AM 71.6 °F 69.8 °F 94% 29.94 in 9.0 mi South 9.2 mph - 0.08 in   Scattered Clouds
8:15 AM 71.6 °F 69.8 °F 94% 29.96 in 4.0 mi SW 16.1 mph 23.0 mph N/A Rain Light Rain
8:35 AM 71.6 °F 69.8 °F 94% 29.96 in 6.0 mi South 9.2 mph - N/A   Light Drizzle
8:55 AM 71.6 °F 69.8 °F 94% 29.96 in 9.0 mi Calm Calm - 0.07 in   Mostly Cloudy
9:15 AM 73.4 °F 69.8 °F 88% 29.94 in 9.0 mi SSE 5.8 mph - N/A   Partly Cloudy
9:35 AM 73.4 °F 69.8 °F 88% 29.93 in 9.0 mi South 8.1 mph - N/A   Clear
9:55 AM 75.2 °F 71.6 °F 89% 29.93 in 10.0 mi SSW 13.8 mph - N/A   Clear
10:15 AM 77.0 °F 71.6 °F 83% 29.94 in 9.0 mi SSW 15.0 mph 21.9 mph N/A   Scattered Clouds
10:35 AM 73.4 °F 69.8 °F 88% 29.95 in 1.2 mi SW 34.5 mph 49.5 mph N/A Rain Rain
10:55 AM 69.8 °F 68.0 °F 94% 29.99 in 1.0 mi SSW 16.1 mph 35.7 mph 1.04 in Rain Rain
11:15 AM 68.0 °F 66.2 °F 94% 29.98 in 6.0 mi SE 12.7 mph - N/A   Light Drizzle
11:35 AM 68.0 °F 64.4 °F 88% 29.92 in 8.0 mi ESE 8.1 mph 13.8 mph N/A Rain Light Rain
11:55 AM 68.0 °F 62.6 °F 83% 29.84 in 10.0 mi SE 16.1 mph 24.2 mph 0.06 in   Clear
12:15 PM 71.6 °F 62.6 °F 73% 29.85 in 10.0 mi NE 4.6 mph - N/A   Clear
12:35 PM 71.6 °F 64.4 °F 78% 29.86 in 10.0 mi Variable 4.6 mph - N/A   Clear
12:55 PM 73.4 °F 64.4 °F 73% 29.87 in 10.0 mi SSE 6.9 mph - N/A   Clear
1:15 PM 73.4 °F 66.2 °F 78% 29.89 in 10.0 mi SSE 10.4 mph 16.1 mph N/A   Clear
1:35 PM 75.2 °F 64.4 °F 69% 29.88 in 10.0 mi SE 10.4 mph - N/A   Clear
1:55 PM 75.2 °F 64.4 °F 69% 29.89 in 10.0 mi Calm Calm - N/A   Scattered Clouds
2:15 PM 75.2 °F 66.2 °F 73% 29.90 in 10.0 mi ESE 4.6 mph - N/A   Overcast
2:35 PM 75.2 °F 66.2 °F 73% 29.90 in 10.0 mi East 4.6 mph - N/A   Mostly Cloudy
2:55 PM 77.0 °F 66.2 °F 69% 29.89 in 10.0 mi SE 6.9 mph - N/A   Partly Cloudy
3:15 PM 77.0 °F 68.0 °F 74% 29.89 in 10.0 mi SSE 6.9 mph - N/A   Clear
3:35 PM 78.8 °F 68.0 °F 69% 29.90 in 10.0 mi South 6.9 mph - N/A   Scattered Clouds
3:55 PM 78.8 °F 68.0 °F 69% 29.90 in 10.0 mi South 9.2 mph - N/A   Overcast
4:15 PM 77.0 °F 68.0 °F 74% 29.89 in 10.0 mi SSE 8.1 mph - N/A   Overcast
4:35 PM 78.8 °F 68.0 °F 69% 29.87 in 10.0 mi SE 9.2 mph - N/A   Overcast
4:55 PM 78.8 °F 69.8 °F 74% 29.87 in 10.0 mi ESE 11.5 mph - N/A   Overcast
5:15 PM 78.8 °F 69.8 °F 74% 29.86 in 10.0 mi ESE 12.7 mph - N/A   Mostly Cloudy
5:35 PM 77.0 °F 69.8 °F 78% 29.86 in 10.0 mi SE 12.7 mph 18.4 mph N/A   Mostly Cloudy
5:55 PM 77.0 °F 69.8 °F 78% 29.86 in - SE 11.5 mph 17.3 mph N/A   Mostly Cloudy
6:15 PM 78.8 °F 69.8 °F 74% 29.85 in 10.0 mi SE 11.5 mph 18.4 mph N/A   Scattered Clouds
6:35 PM 78.8 °F 71.6 °F 78% 29.85 in 10.0 mi SSE 9.2 mph - N/A   Clear
6:55 PM 78.8 °F 71.6 °F 78% 29.84 in 10.0 mi SSE 13.8 mph - N/A   Clear
7:15 PM 78.8 °F 71.6 °F 78% 29.84 in 10.0 mi SSE 12.7 mph - N/A   Clear
7:35 PM 78.8 °F 71.6 °F 78% 29.83 in 10.0 mi SSE 9.2 mph - N/A   Clear
7:55 PM 78.8 °F 71.6 °F 78% 29.83 in 10.0 mi South 8.1 mph 13.8 mph N/A   Clear
8:15 PM 78.8 °F 71.6 °F 78% 29.83 in 10.0 mi SSE 10.4 mph 17.3 mph N/A   Clear
8:35 PM 77.0 °F 71.6 °F 83% 29.82 in 10.0 mi SSE 12.7 mph - N/A   Clear
8:55 PM 77.0 °F 71.6 °F 83% 29.82 in 10.0 mi SSE 13.8 mph 20.7 mph N/A   Clear
9:15 PM 77.0 °F 71.6 °F 83% 29.83 in 10.0 mi South 13.8 mph 19.6 mph N/A   Clear
9:35 PM 77.0 °F 71.6 °F 83% 29.83 in 10.0 mi South 16.1 mph 21.9 mph N/A   Clear
9:55 PM 77.0 °F 71.6 °F 83% 29.84 in 10.0 mi South 11.5 mph 17.3 mph N/A   Clear
10:15 PM 75.2 °F 71.6 °F 89% 29.84 in 10.0 mi South 12.7 mph - N/A   Clear
10:35 PM 75.2 °F 69.8 °F 83% 29.84 in 10.0 mi South 11.5 mph - N/A   Clear
10:55 PM 75.2 °F 69.8 °F 83% 29.84 in 10.0 mi South 9.2 mph - N/A   Clear
11:15 PM 75.2 °F 69.8 °F 83% 29.84 in 10.0 mi South 11.5 mph - N/A   Partly Cloudy
11:35 PM 75.2 °F 69.8 °F 83% 29.83 in 10.0 mi South 9.2 mph - N/A   Scattered Clouds
11:55 PM 75.2 °F 69.8 °F 83% 29.82 in 10.0 mi South 12.7 mph - N/A   Mostly Cloudy